Weather in Novoozernoye

Russia / Altai Krai     53°28′36″N   85°37′01″E
temp.,
°C
wind,
m/s
gust,
m/s
humid.,
%
clouds,
%
prec.,
mm/h
press.,
hPa
HPBL,
m
19 may, wed
wed1901:00+14ssw2292100 0.9 100519
04:00+13w3494100 1.6 100391
07:00+14nw3590100 2.9 1003273
10:00+14nne5577100 0.2 1004596
13:00+11n5784100 0.6 1005632
16:00+11n4878100 2.7 1006842
19:00+14n365284 2.7 10061348
22:00+9nne3761100 0.0 1009146
20 may, thu
thu2001:00+8n6962100 0.0 1010600
04:00+5nnw5955100 0.0 1010395
07:00+5nnw5115687 0.0 1011580
10:00+8nnw683685 0.0 10122522
13:00+9nw5637100 0.0 10132671
16:00+8nw675490 0.9 10151478
19:00+7n6754100 1.8 10161510
22:00+4n4964100 0.3 1019456
21 may, fri
fri2101:00+2nw397738 0.4 1020248
04:000nw35792 0.0 1022103
07:00+1nw348015 0.0 1024217
10:00+6n336799 0.0 10251117
13:00+9wnw235014 0.1 10251466
16:00+12wsw233818 0.0 10241897
19:00+12w23415 0.0 10251689
22:00+7wsw2259100 0.0 102726
22 may, sat
sat2201:00+5w226457 0.0 102818
04:00+4w116673 0.0 102911
07:00+6sw1162100 0.0 103067
10:00+11ssw115099 0.0 1030526
13:00+14sw2241100 0.0 10291715
16:00+15w233642 0.0 10272107
19:00+15wnw33405 0.0 10271744
22:00+9n11535 0.0 102810
23 may, sun
sun2301:00+8se115395 0.0 102810
04:00+9s115250 0.0 102812
07:00+9s1259100 0.0 102842
10:00+12s2357100 0.0 1028311
13:00+16s33455 0.0 1027871
16:00+19s114411 0.0 10251069
19:00+19se22490 0.0 1024848
22:00+13se11670 0.0 102310